Regional Weather Roundup
Issued by NWS Wakefield, VA

Home | Current Version | Previous Version | Graphics & Text | Print | Product List | Glossary On
Versions: 1 2 3 4 5 6 7 8 9 10 11 12 13 14 15 16 17 18 19 20 21 22 23 24 25 26 27 28 29 30 31 32 33 34 35 36 37 38 39 40 41 42 43 44 45 46 47 48 49 50
626
ASUS41 KAKQ 241315
RWRAKQ

REGIONAL WEATHER ROUNDUP
NATIONAL WEATHER SERVICE WAKEFIELD VA
900 AM EDT MON JUL 24 2017

Note: "fair" indicates few or no clouds below 12,000 feet with no
significant weather and/or obstructions to visibility. * = Denotes
station may not report precipitation (e.g., rain,snow,etc.),
thunder or fog.

VAZ042-051-052>054-056-241400-
NORTHERN VIRGINIA

CITY           SKY/WX    TMP DP  RH WIND       PRES   REMARKS
WASH NATIONAL  CLOUDY    81  71  71 N8        29.83R
DULLES         PTSUNNY   79  69  71 NW8       29.83R
FORT BELVOIR   MOSUNNY   80  71  73 W3        29.82R
QUANTICO       PTSUNNY   80  74  81 VRB7      29.83R
FREDERICKSBRG* PTSUNNY   78  72  82 MISG      29.82S
STAFFORD*      MOSUNNY   78  73  85 SW5       29.87R
WARRENTON      MOSUNNY   81  69  67 S3        29.82S
CULPEPER*      MOSUNNY   79  73  81 CALM      29.84R
MANASSAS*      MOSUNNY   80  71  74 W3        29.83R
LEESBURG*      MOSUNNY   79  70  73 N7        29.85R
WINCHESTER     SUNNY     77  64  65 NW9G17    29.85R
FRONT ROYAL*   SUNNY     81  64  57 N5        29.84R
LURAY*         SUNNY     79  68  69 CALM      29.85S
$$

VAZ048-049-060>072-079>083-241400-
CENTRAL AND SOUTH CENTRAL VIRGINIA

CITY           SKY/WX    TMP DP  RH WIND       PRES   REMARKS
RICHMOND       CLOUDY    76  71  85 SW10      29.84R
CHESTERFIELD*  NOT AVBL
PETERSBURG*    CLOUDY    75  68  78 CALM      29.86R
HANOVER        CLOUDY    75  69  81 SW7       29.85R
TAPPAHANNOCK*  CLOUDY    75  73  93 SE7       29.83R
QUINTON*       FAIR      75  73  93 SW5       29.83R
CHARLOTTSVILLE PTSUNNY   79  72  79 S6        29.85R
GORDONSVILLE*  MOSUNNY   78  73  82 SW7       29.84R
ORANGE*        CLOUDY    77  72  83 SW5       29.84R
LOUISA*        CLOUDY    79  70  73 SW5       29.84R
BUMPASS*       FAIR      76  72  87 SW9       29.84R
FARMVILLE*     CLOUDY    76  70  80 SW6       29.86R
CREWE*         FAIR      77  66  69 W6G16     29.87R
FORT PICKETT*  FAIR     N/A N/A N/A W7        29.87S
CHASE CITY*    FAIR      75  75  99 SW6       29.89S
CLARKSVILLE*   FAIR      75  72  88 SW9       29.89S
SOUTH HILL*    CLOUDY    75  72  89 SW9       29.94R
LAWRENCEVILLE* PTSUNNY   75  70  84 SW7       29.87S
EMPORIA*       CLOUDY    73  70  88 SW8       29.88R
$$

VAZ088>098-241400-
SOUTHEAST VIRGINIA

CITY           SKY/WX    TMP DP  RH WIND       PRES   REMARKS
NORFOLK        CLOUDY    79  73  82 SW16G24   29.83R
VIRGINIA BEACH CLOUDY    76  70  82 SW10G21   29.82S
NORFOLK NAVAL  PTSUNNY   80  71  74 SW13G18   29.85R
WEST POINT*    CLOUDY    77  69  77 W10       29.84S
SALUDA*        FAIR      76  72  86 SW5       29.82S
NEWPORT NEWS   CLOUDY    78  70  76 W12       29.84R
LANGLEY AFB    PTSUNNY   77  72  83 SW16      29.83R
FORT EUSTIS    CLOUDY    77  70  80 SW8G16    29.82R
WILLIAMSBURG*  CLOUDY    79  72  78 W3        29.85S
HR EXEC AP*    NOT AVBL
FRANKLIN*      CLOUDY    75  72  88 SW8       29.86R
US460-WAKEFLD  CLOUDY    77  71  82 SW10      29.86R
$$

VAZ020-022-025-037-045-241400-
WEST CENTRAL AND SOUTHWEST VIRGINIA

CITY           SKY/WX    TMP DP  RH WIND       PRES   REMARKS
STAUNTON*      MOSUNNY   78  65  66 CALM      29.90R
WAYNESBORO*    CLOUDY    74  69  84 SW3       29.90R
HOT SPRINGS VA FOG       64  63  94 W9        30.03R VSB 1/4
LYNCHBURG      CLOUDY    74  70  87 SW7       29.89R
DANVILLE       PTSUNNY   73  72  96 SW6       29.91R
SOUTH BOSTON*  FAIR      77  71  83 SW9       29.90S
MARTINSVILLE   PTSUNNY   75  69  83 CALM      29.95R
ROANOKE        MOSUNNY   76  69  79 SW6       29.93R
BLACKSBURG     PTSUNNY   73  67  82 W5        30.01R
DUBLIN*        CLOUDY    74  63  66 CALM      30.00R
MARION*        CLOUDY    69  66  88 SW8       30.05R FOG
HILLSVILLE*    MOSUNNY   71  63  77 NW13G18   30.01R
RICHLANDS*     CLOUDY    69  67  93 W5        30.05R FOG
WISE*          CLOUDY    70  70 100 SW3       30.06R FOG
ABINGDON*      CLOUDY    71  71  99 W6        30.03S
$$

MDZ021>025-VAZ099-100-241400-
SOUTHERN MARYLAND AND THE DELMARVA PENINSULA

CITY           SKY/WX    TMP DP  RH WIND       PRES   REMARKS
PATUXENT RIVER CLOUDY    76  73  91 W14       29.80R
BAY BRIDGE APT NOT AVBL
LEONARDTOWN    CLOUDY    75  70  83 W12       29.83R
DOVER          PTSUNNY   77  77 100 SW13      29.76R
GEORGETOWN     CLOUDY    78  72  81 SW10      29.79R
EASTON         PTSUNNY   77  73  88 W3        29.83R
CAMBRIDGE      SUNNY     79  73  83 VRB7      29.79S
SALISBURY      MOSUNNY   79  73  83 SW10      29.80R
OCEAN CITY     CLOUDY    80  74  81 W9        29.79R
WALLOPS ISLAND PTSUNNY   82  74  76 W13G21    29.81R
ACCOMACK*      CLOUDY    80  73  80 W14G22    29.83R
$$

NCZ012>017-030>032-241400-
NORTH CENTRAL AND EASTERN NORTH CAROLINA

CITY           SKY/WX    TMP DP  RH WIND       PRES   REMARKS
ROANOKE RAPIDS CLOUDY    73  72  94 SW13      29.88R
RALEIGH        PTSUNNY   75  73  93 SW8       29.92R
ELIZABETH CITY CLOUDY    78  75  90 SW12      29.85S
AHOSKIE*         N/A     75  73  95 SW3       29.87R
EDENTON*       CLOUDY    80  73  80 SW12      29.88R
CURRITUCK*     CLOUDY    78  77  98 SW6       29.85F
KILL DEVIL HLS CLOUDY    80  71  73 SW9       29.86F
MANTEO         CLOUDY    81  71  72 W14       29.88F
CAPE HATTERAS  SUNNY     80  74  81 SW13      29.91F
TARBORO*       NOT AVBL
GOLDSBORO      SUNNY     80  77  91 SW14G20   29.89S
WASHINGTON     CLOUDY    77  72  83 SW10      29.90S
GREENVILLE     SUNNY     79  72  78 SW10      29.90F
NEW BERN       CLOUDY    81  75  82 SW15G21   29.92F
WILMINGTON     CLOUDY    80  75  84 SW10      29.94F
$$

VAZ048-241400-
ELSEWHERE

CITY           SKY/WX    TMP DP  RH WIND       PRES   REMARKS
HARRISBURG PA  MOSUNNY   74  69  85 NW13      29.80R
BALTIMORE      PTSUNNY   78  73  84 NW8       29.80R
ANNAPOLIS      CLOUDY    80  76  87 W8        29.80R
ANDREWS AFB    CLOUDY    78  72  83 W8        29.82R
PHILADELPHIA   LGT RAIN  74  70  87 W10       29.76S
HENDERSON NC   MOSUNNY   72  68  85 SW9       29.91R
GREENSBORO     PTSUNNY   74  72  93 SW14      29.93R
ROCKY MOUNT    CLOUDY    76  73  91 W9        29.90R
$$

VAZ100-241400-
MARINE

STATION/POSITION TIME  TEMP    WIND        PRES    WAVE   SWELL
                       AIR SEA DIR/SP/G            HT/PER HT/PER
                 (UTC) (F)     (DEG/KT/KT) (MB)    (FT/S) (FT/S)
BRANDYWINE LGT   1248          240/ 17/ 20   N/A
CAPE MAY NJ      1236   75 73  220/  7/ 10 1007.6R
LEWES DE         1236   78 72  260/  6/ 14 1007.8R
15NM E FENWICK I 1250   75 76  230/ 12/ 14 1008.8R   4/ 6   2/ 6
OCEAN-CITY-INLET 1236   78 71  270/  8/ 11 1009.2R
WACHAPREAGUE VA  1236   79 80  230/  5/  8 1009.5R
THOMAS POINT MD  1300   76 82  280/ 10/ 12   N/A
COVE POINT MD    1236   77     260/ 13/ 19 1009.6R
SOLOMONS ISLAND  1236   77 84  260/ 10/ 13   N/A
BISHOPS HEAD MD  1236   78 80  250/ 17/ 23 1009.2R
PINEY POINT MD   1248          290/  8/ 11   N/A
CAMBRIDGE MD     1236   78 86              1009.7R
LEWISETTA VA     1236   77 84  270/ 14/ 17 1009.2R
RAPPAHANNOCK LGT 1248          240/ 17/ 20 1010.4R
YORK RVR RNG VA  1236   78     260/ 14/ 17 1010.3R
YORKTOWN VA      1236   76 82  240/ 10/ 12 1009.6R
DOMINION TERM VA 1236   77     240/ 14/ 20 1010.4R
KIPTOPEKE VA     1236      78  220/ 12/ 16   N/A
CHES BAY BRIDGE  1236   76 69  230/ 17/ 19 1009.3S
CAPE HENRY VA    1236   75     200/ 13/ 17   N/A
WILLOUBY STN VA  1236   76     240/ 19/ 21 1009.7R
S CRANEY ISL VA  1236   77     240/ 10/ 19 1009.8R
CAPE HENRY BUOY  1300      64                N/A     2/ 7
64NM E OF VA BCH 1250   78 79  220/ 16/ 17 1010.9F   5/ 7   2/ 9
DUCK PIER NC     1236   78 61  220/ 15/ 21 1010.8F
44100 DUCK FRF   1235      76                N/A     3/11
44056 DUCK FRF   1300      62                N/A     2/ 7
OREGON INLET NC  1248          230/ 16/ 22   N/A
HATTERAS NC      1236   80 77  240/ 11/ 14 1012.7F
DIAMOND SHLS NC  1250   82 84  240/ 19/ 23 1012.8R   9/ 7
CAPE LOOKOUT NC  1300   81     240/ 11/ 13 1013.4R
$$




USA.gov is the U.S. government's official web portal to all federal, state and local government web resources and services.